Location: Degersen
(52.2871°N, 9.5716°E)
Time: 08:49:28
(UTC+00:00)

Cosmos 2278 Rocket - Pass Details

Date: 20 January 2026
Orbit: 839 x 846 km, 71.0° (Epoch: 19 February)

Event Time Altitude Azimuth Distance (km) Brightness Sun altitude
Exits shadow 05:30:23 19° 247° (WSW) 1,921 3.6 -16.1°
Maximum altitude 05:34:10 44° 311° (NW) 1,163 2.5 -15.6°
Drops below altitude 10° 05:39:35 10° 23° (NNE) 2,474 4.7 -14.8°
Sets 05:42:10 0° 31° (NNE) 3,413 5.6 -14.4°
